Weather in Chegarachi

Uzbekistan     37°23′34″N   66°36′05″E
temp.,
°C
wind,
m/s
gust,
m/s
humid.,
%
clouds,
%
prec.,
mm/h
press.,
hPa
HPBL,
m
6 may, thu
thu623:00+22nw5747100 0.0 1012721
02:00+22nw684184 0.0 1011682
05:00+21sw024989 0.0 1013291
08:00+21se225786 0.0 1014621
11:00+21w764590 0.2 1015955
14:00+22nw774998 0.0 1014550
17:00+25w544055 0.0 1013978
20:00+22w454816 0.0 1014138
7 may, fri
fri723:00+21nw235426 0.1 101536
02:00+20nne115598 0.0 101412
05:00+19ne11603 0.0 101416
08:00+23ene23471 0.0 1015453
11:00+26ese223639 0.0 10151563
14:00+29sse112987 0.0 10132454
17:00+30w112577 0.0 10112597
20:00+27nw452954 0.0 1012104
8 may, sat
sat823:00+26n223227 0.0 101214
02:00+24ne33370 0.0 101223
05:00+24ne334041 0.0 101221
08:00+26e23350 0.0 1014410
11:00+29ssw11272 0.0 10132251
14:00+32w33190 0.0 10112883
17:00+32wnw44175 0.0 10092648
20:00+30nw58215 0.0 1010147
9 may, sun
sun923:00+28nnw33275 0.0 101030
02:00+26ene22295 0.0 100913
05:00+24ne12322 0.0 100912
08:00+28ene12285 0.0 1011384
11:00+31w22215 0.0 10102174
14:00+33w221612 0.0 10083193
17:00+34w221487 0.0 10073296
20:00+31wsw3317100 0.0 100725
10 may, mon
mon1023:00+29ene3321100 0.0 100620
02:00+28ne5625100 0.0 100573
05:00+27ne5526100 0.0 100653
08:00+30e342251 0.0 1007639
11:00+32se2221100 0.0 10072085
14:00+35wnw441626 0.0 10053330
17:00+35nw9715100 0.0 10033639
20:00+31nnw71022100 0.1 1005356